TimePDT,TemperatureF,Dew PointF,Humidity,Sea Level PressureIn,VisibilityMPH,Wind Direction,Wind SpeedMPH,Gust SpeedMPH,PrecipitationIn,Events,Conditions,WindDirDegrees,DateUTC
12:55 AM,50.0,48.9,96,29.87,10.0,SE,3.5,-,0.04,,Overcast,130,2013-09-25 07:55:00
1:55 AM,48.9,46.9,93,29.87,10.0,SSE,4.6,-,0.02,Rain,Light Rain,150,2013-09-25 08:55:00
2:33 AM,48.2,48.2,100,29.88,2.5,Variable,3.5,-,0.05,Rain,Rain,0,2013-09-25 09:33:00
2:36 AM,48.2,48.2,100,29.88,3.0,Calm,Calm,-,0.06,Rain,Light Rain,0,2013-09-25 09:36:00
2:45 AM,48.2,48.2,100,29.88,8.0,Calm,Calm,-,0.06,Rain,Light Rain,0,2013-09-25 09:45:00
2:55 AM,50.0,48.0,93,29.88,10.0,Calm,Calm,-,0.06,,Overcast,0,2013-09-25 09:55:00
3:55 AM,48.9,48.0,97,29.87,10.0,SSE,4.6,-,0.01,Rain,Light Rain,160,2013-09-25 10:55:00
4:55 AM,48.9,46.9,93,29.87,10.0,SSE,6.9,-,0.01,Rain,Light Rain,150,2013-09-25 11:55:00
5:55 AM,48.0,48.0,100,29.89,10.0,WSW,3.5,-,0.01,,Mostly Cloudy,240,2013-09-25 12:55:00
6:55 AM,48.0,46.9,96,29.89,10.0,South,4.6,-,0.02,,Mostly Cloudy,170,2013-09-25 13:55:00
7:55 AM,46.9,46.9,100,29.91,10.0,South,3.5,-,N/A,,Clear,190,2013-09-25 14:55:00
8:55 AM,51.1,48.9,92,29.92,10.0,ESE,4.6,-,N/A,,Clear,120,2013-09-25 15:55:00
9:55 AM,54.0,50.0,86,29.93,10.0,SE,3.5,-,N/A,,Clear,130,2013-09-25 16:55:00
10:55 AM,57.0,46.9,69,29.94,10.0,NNW,3.5,-,N/A,,Clear,340,2013-09-25 17:55:00
11:55 AM,57.9,50.0,75,29.95,10.0,NNE,5.8,-,N/A,,Scattered Clouds,20,2013-09-25 18:55:00
12:55 PM,59.0,46.9,64,29.96,10.0,NE,3.5,-,N/A,,Clear,40,2013-09-25 19:55:00
1:55 PM,61.0,46.9,60,29.97,10.0,NW,5.8,-,N/A,,Scattered Clouds,320,2013-09-25 20:55:00
2:55 PM,60.1,48.0,64,29.98,10.0,NNW,6.9,-,N/A,,Overcast,330,2013-09-25 21:55:00
3:55 PM,59.0,48.9,69,29.99,10.0,NW,6.9,-,N/A,,Overcast,320,2013-09-25 22:55:00
4:55 PM,59.0,48.0,67,29.99,10.0,NW,8.1,-,N/A,,Overcast,310,2013-09-25 23:55:00
5:55 PM,59.0,48.0,67,30.00,10.0,WNW,6.9,-,N/A,,Partly Cloudy,300,2013-09-26 00:55:00
6:55 PM,55.9,48.0,75,30.01,10.0,West,4.6,-,N/A,,Partly Cloudy,280,2013-09-26 01:55:00
7:55 PM,53.1,48.0,83,30.03,10.0,West,3.5,-,N/A,,Clear,270,2013-09-26 02:55:00
8:55 PM,50.0,46.9,89,30.03,10.0,West,3.5,-,N/A,,Clear,260,2013-09-26 03:55:00
9:55 PM,48.9,46.9,93,30.04,10.0,Calm,Calm,-,N/A,,Clear,0,2013-09-26 04:55:00
10:55 PM,48.0,46.0,93,30.04,10.0,SSE,3.5,-,N/A,,Clear,160,2013-09-26 05:55:00
11:55 PM,46.9,45.0,93,30.04,10.0,SE,4.6,-,N/A,,Clear,130,2013-09-26 06:55:00